User: anonymous   Login
Location: Hickory_Viewmont
(35.7830°N, 81.3170°W)
Time: 18:27:11
(UTC-04:00)
Language:

Okean-O - Orbit

View from above orbital plane
View from above orbital plane
View from above satellite
View from above satellite

Ground track
Ground track

The orbit data is extracted from the following two-line orbital elements,

1 25860U 99039A   17268.50808221  .00000075  00000-0  18420-4 0  9992
2 25860  98.1958 254.8048 0001475 110.4307 249.7061 14.76498623978639
Epoch (UTC): 25 September 2017 12:11:38
Eccentricity: 0.0001475
inclination: 98.1958°
perigee height: 639 km
apogee height: 641 km
right ascension of ascending node: 254.8048°
argument of perigee: 110.4307°
revolutions per day: 14.76498623
mean anomaly at epoch: 249.7061°
orbit number at epoch: 97863

The dashed part of the orbit path shows where the satellite is in the earth's shadow,  

DLR